User: anonymous   Login
Location: Unspecified
(0.0000°N, 0.0000°E)
Time: 23:35:11
(UTC+00:00)
Language:

FLTSATCOM F7 - Orbit

View from above orbital plane
View from above orbital plane
View from above satellite
View from above satellite

Ground track
Ground track

The orbit data is extracted from the following two-line orbital elements,

1 17181U 86096A   18133.08887356 0.00000000  00000-0  00000-0 0    01
2 17181  14.7309   2.9306 0010113 136.5017 223.5229  1.00270000    08
Epoch (UTC): 13 May 2018 02:07:58
Eccentricity: 0.0010113
inclination: 14.7309°
perigee height: 35744 km
apogee height: 35829 km
right ascension of ascending node: 2.9306°
argument of perigee: 136.5017°
revolutions per day: 1.00270000
mean anomaly at epoch: 223.5229°
orbit number at epoch: 0

The dashed part of the orbit path shows where the satellite is in the earth's shadow,  

DLR